Regional Weather Roundup
Issued by NWS New Orleans/Baton Rouge, LA

Home | Current Version | Previous Version | Text Only | Print | Product List | Glossary On
Versions: 1 2 3 4 5 6 7 8 9 10 11 12 13 14 15 16 17 18 19 20 21 22 23 24 25 26 27 28 29 30 31 32 33 34 35 36 37 38 39 40 41 42 43 44 45 46 47 48 49 50
375
ASUS44 KLIX 250101
RWRLIX
NEW ORLEANS REGIONAL WEATHER ROUNDUP
NATIONAL WEATHER SERVICE NEW ORLEANS LA
800 PM CDT FRI OCT 24 2014

NOTE: "FAIR" INDICATES FEW OR NO CLOUDS BELOW 12,000 FEET WITH NO
      SIGNIFICANT WEATHER AND/OR OBSTRUCTIONS TO VISIBILITY.
      SKY/WX - SKY CONDITION AND SIGNIFICANT WEATHER.
      TMP - AIR TEMPERATURE.     DP    - DEWPOINT TEMPERATURE.
      RH  - RELATIVE HUMIDITY.   PRES  - PRESSURE.
      HI  - HEAT INDEX.          WCI   - WIND CHILL INDEX.

*  THESE STATIONS ARE NOT NWS OR FAA STATIONS AND ARE NOT UNDER
   NWS QUALITY CONTROL.

LAZ038-040-048-061>063-065>067-069-250200-
SOUTHEAST LOUISIANA

CITY           SKY/WX    TMP DP  RH WIND       PRES   REMARKS
N.O. AUDUBON     N/A     66  52  61 MISG        N/A
N.O. INTL ARPT CLEAR     69  48  47 N7        30.08R
N.O. LAKEFRONT CLEAR     71  56  58 N9        30.08R
N.O. DOWNTOWN*   N/A     72  46  40 N7        30.08R
SLIDELL        CLEAR     58  53  84 N3        30.07R
BATON ROUGE    PTCLDY    60  50  69 NW3       30.09R
BOOTHVILLE     CLEAR     67  56  67 N6        30.07R
BELLE CHASSE   PTCLDY    57  51  80 CALM      30.07R
BOGALUSA*        N/A     59  48  67 CALM      30.10R
NEW ROADS*       N/A     60  52  73 CALM      30.10S
GONZALES*        N/A     57  56  95 CALM      30.09R
HAMMOND*       NOT AVBL
HOUMA*         CLEAR     62  51  66 NW3       30.08R
PORT FOURCHON* CLEAR     70  52  52 N7        30.11R

$$

MSZ070-080>082-250200-
SOUTHERN MISSISSIPPI

CITY           SKY/WX    TMP DP  RH WIND       PRES   REMARKS
MCCOMB         CLEAR     65  46  50 N7        30.10R
GULFPORT       CLEAR     63  50  62 NW3       30.06R
BILOXI         CLEAR     67  50  53 NW3       30.06R
PASCAGOULA     CLEAR     53  49  86 CALM      30.06R

$$

COASTAL OBSERVATIONS
LAKE AND NEARSHORE STATIONS

STATION/POSITION TIME  TEMP    WIND        PRES    WAVE
                       AIR SEA DIR/SP/G            HT/PER
                 (UTC) (F)     (DEG/KT/KT) (MB)    (FT/S)
PASCAGOULA       0000   68     330/  6/  7 1017.0
WAVELAND YACHT   0000   70     350/  7/  8 1017.2
GRAND ISLE       0000   71 73  360/  7/  9 1018.5
SOUTHWEST PASS   0000   71 81              1018.1
NEW CANAL        0000   73 71  360/ 11/ 13 1018.4
SHELL BEACH      0000   71 68  300/  8/  9 1017.7

OFFSHORE STATIONS

STATION/POSITION TIME  TEMP    WIND        PRES    WAVE
                       AIR SEA DIR/SP/G            HT/PER
                 (UTC) (F)     (DEG/KT/KT) (MB)    (FT/S)
64 S DAUPHIN ISL 0050   72 78  360/ 12/ 14 1017.8    2/ 8

$$




USA.gov is the U.S. government's official web portal to all federal, state and local government web resources and services.